Home   Weather   43°10'N, 88°01'W   Past weeks
Flag for USA

Past Weather in 43°10'N, 88°01'W, USA — Yesterday and Last 2 Weeks

Now
48 °F

Mostly cloudy.


Feels Like: 40 °F
Forecast: 48 / 42 °F
Wind: 25 mph from Southwest

Location: Milwaukee / Timmerman

Current Time: Oct 22, 2019 at 3:43:09 am

Latest Report: Oct 22, 2019 at 3:15 am


Visibility: 10 mi

Pressure: 29.39 "Hg

Humidity: 62%

Dew Point: 36 °F

Location of 43°10'N, 88°01'WLocation

Past Weather in 43°10'N, 88°01'W — Graph

°F

43°10'N, 88°01'W Temperature Yesterday

Maximum temperature yesterday: 64 °F (at 4:45 pm)
Minimum temperature yesterday: 45 °F (at 12:15 am)
Average temperature yesterday: 51 °F

High & Low Weather Summary for the Past Weeks

 TemperatureHumidityPressure
High70 °F (Oct 9, 12:45 pm)100% (Oct 18, 2:55 am)30.25 "Hg (Oct 18, 2:55 am)
Low32 °F (Oct 14, 4:55 am)29% (Oct 9, 1:45 pm)29.36 "Hg (Oct 21, 4:45 pm)
Average46 °F73%29.94 "Hg
* Reported Oct 7 2:15 am — Oct 22 2:35 am, 43°10'N, 88°01'W. Weather by CustomWeather, © 2019

Note: Actual official high and low records may vary slightly from our data, if they occured in-between our weather recording intervals... More about our weather records

Advertising

43°10'N, 88°01'W Weather History for the Previous 24 Hours

Scroll right to see more
 ConditionsComfort  
Time TempWeatherWind HumidityBarometerVisibility
2:35 am
Tue, Oct 22
50 °FMostly cloudy.20 mph58%29.38 "Hg10 mi
2:15 am50 °FOvercast.15 mph58%29.39 "Hg10 mi
1:55 am50 °FOvercast.21 mph58%29.40 "Hg10 mi
1:35 am50 °FOvercast.18 mph58%29.41 "Hg10 mi
1:15 am50 °FMostly cloudy.17 mph58%29.41 "Hg10 mi
12:55 am50 °FPassing clouds.16 mph58%29.42 "Hg10 mi
12:35 am50 °FPartly cloudy.13 mph58%29.42 "Hg10 mi
12:15 am50 °FPassing clouds.17 mph58%29.43 "Hg10 mi
11:55 pm
Mon, Oct 21
50 °FPassing clouds.13 mph58%29.43 "Hg10 mi
11:35 pm50 °FOvercast.13 mph58%29.44 "Hg10 mi
11:15 pm52 °FOvercast.14 mph54%29.45 "Hg10 mi
10:55 pm52 °FOvercast.14 mph54%29.46 "Hg10 mi
10:35 pm52 °FOvercast.15 mph54%29.46 "Hg10 mi
10:15 pm52 °FMostly cloudy.15 mph54%29.46 "Hg10 mi
9:55 pm52 °FMostly cloudy.15 mph54%29.47 "Hg10 mi
9:35 pm52 °FMostly cloudy.17 mph50%29.48 "Hg10 mi
9:15 pm52 °FMostly cloudy.17 mph50%29.47 "Hg10 mi
8:55 pm52 °FPassing clouds.15 mph50%29.48 "Hg10 mi
7:45 pm54 °FCool.20 mph54%29.45 "Hg10 mi
6:45 pm57 °FPassing clouds.22 mph44%29.44 "Hg10 mi
5:45 pm61 °FScattered clouds.18 mph45%29.41 "Hg10 mi
4:45 pm64 °FScattered clouds.23 mph49%29.36 "Hg10 mi
3:45 pm63 °FPartly sunny.15 mph77%29.37 "Hg10 mi
2:45 pm59 °FBroken clouds.10 mph88%29.37 "Hg10 mi
1:45 pm57 °FHeavy rain. Low clouds.17 mph88%29.38 "Hg3 mi
12:45 pm55 °FLight rain. Fog.26 mph88%29.39 "Hg4 mi
11:45 am55 °FRain. Fog.17 mph82%29.44 "Hg3 mi
10:45 am55 °FLight rain. Overcast.17 mph77%29.46 "Hg10 mi
9:45 am55 °FLight rain. Cloudy.18 mph77%29.53 "Hg10 mi
8:45 am55 °FOvercast.12 mph72%29.61 "Hg10 mi
7:45 am54 °FOvercast.12 mph82%29.65 "Hg10 mi
7:15 am50 °FOvercast.6 mph88%29.66 "Hg10 mi
6:55 am50 °FOvercast.8 mph88%29.67 "Hg7 mi
6:35 am48 °FOvercast.3 mph94%29.70 "Hg7 mi
6:15 am46 °FFog.6 mph93%29.71 "Hg5 mi
5:55 am46 °FFog.3 mph93%29.73 "Hg5 mi
5:35 am46 °FFog.3 mph93%29.76 "Hg4 mi
5:15 am46 °FFog.No wind87%29.76 "Hg3 mi
4:35 am45 °FFog.3 mph93%29.79 "Hg1 mi
3:55 am45 °FFog.3 mph93%29.82 "Hg0 mi
3:35 am45 °FFog.5 mph93%29.83 "Hg0 mi
3:15 am45 °FFog.6 mph93%29.84 "Hg1 mi
Weather by CustomWeather, © 2019

See weather overview